Weather History for Edinburg, TX

Change the Weather History Date:

Sunday, December 11, 2011

  Actual Average (KMFE) Record (KMFE)
Temperature  
Mean Temperature 54 °F 62 °F  
Max Temperature 57 °F 73 °F 90 °F (1949)
Min Temperature 52 °F 52 °F 28 °F (1915)
Degree Days  
Heating Degree Days 10 5  
Month to date heating degree days 50  
Since 1 July heating degree days 110  
Cooling Degree Days 0 3  
Month to date cooling degree days 35  
Year to date cooling degree days 4404  
Growing Degree Days 4 (Base 50)    
Moisture  
Dew Point 53 °F    
Average Humidity 91    
Maximum Humidity 94    
Minimum Humidity 87    
Precipitation  
Precipitation 0.08 in 0.04 in 1.16 in (1986)
Month to date precipitation 0.38  
Year to date precipitation 21.39  
Sea Level Pressure  
Sea Level Pressure 30.24 in    
Wind  
Wind Speed 9 mph (North)    
Max Wind Speed 15 mph    
Max Gust Speed 21 mph    
Visibility 4 miles    
Events Rain    
T = Trace of Precipitation, MM = Missing Value Source: NWS Daily Summary

Daily Weather History Graph

Daily Weather History Graph

Search for Another Location

Airport:

Trip Planner

Search our weather history database for the weather conditions in past years. The results will help you decide how hot, cold, wet, or windy it might be!

Date:

Astronomy

Dec. 11, 2011 Rise Set
Actual Time 7:10 AM CST 5:41 PM CST
Civil Twilight 6:44 AM CST 6:06 PM CST
Nautical Twilight 6:16 AM CST 6:35 PM CST
Astronomical Twilight 5:47 AM CST 7:03 PM CST
Moon 6:51 PM CST (12/11) 7:59 AM CST (12/11)
Length of Visible Light 11h 21m
Length of Day
10h 30m
Full, 99% of the Moon is Illuminated
Dec 11
Full
Dec 17
Last Quarter
Dec 24
New
Jan 1
First Quarter
Jan 9
Full

Hourly Weather History & Observations

Time (CST) Temp. Dew Point Humidity Pressure Visibility Wind Dir Wind Speed Gust Speed Precip Events Conditions
12:15 AM 55.2 °F 53.1 °F 92% 30.33 in 5.0 mi North 11.5 mph - 0.02 in   Drizzle
12:55 AM 54.5 °F 52.5 °F 93% 30.31 in 7.0 mi NE 9.2 mph - 0.04 in Rain Light Rain
1:15 AM 55.2 °F 53.1 °F 92% 30.31 in 5.0 mi NNE 10.4 mph - 0.01 in   Overcast
1:35 AM 55.0 °F 52.9 °F 92% 30.32 in 5.0 mi North 13.8 mph - 0.01 in   Overcast
1:55 AM 54.0 °F 51.8 °F 92% 30.32 in 7.0 mi NNE 15.0 mph 20.7 mph 0.01 in   Overcast
2:15 AM 53.2 °F 51.1 °F 92% 30.31 in 5.0 mi NE 10.4 mph - N/A Rain Light Rain
2:35 AM 53.6 °F 51.3 °F 92% 30.31 in 4.0 mi NNE 9.2 mph - N/A   Overcast
2:55 AM 53.2 °F 51.1 °F 92% 30.31 in 4.0 mi North 11.5 mph - N/A   Overcast
3:15 AM 52.9 °F 50.9 °F 93% 30.31 in 5.0 mi NNE 8.1 mph - N/A   Overcast
3:35 AM 52.7 °F 50.9 °F 94% 30.30 in 5.0 mi NNE 8.1 mph - N/A   Overcast
3:55 AM 52.7 °F 50.7 °F 93% 30.30 in 5.0 mi NNE 8.1 mph - N/A   Overcast
4:15 AM 52.5 °F 50.4 °F 92% 30.29 in 5.0 mi NNE 9.2 mph - N/A   Overcast
4:35 AM 52.3 °F 50.4 °F 93% 30.29 in 5.0 mi North 9.2 mph - N/A   Light Drizzle
4:55 AM 52.2 °F 50.0 °F 92% 30.28 in 5.0 mi North 9.2 mph - N/A   Drizzle
11:35 AM 54.0 °F 50.5 °F 88% 30.30 in 7.0 mi NNE 8.1 mph - N/A   Overcast
11:55 AM 54.5 °F 50.9 °F 88% 30.29 in 7.0 mi NNE 8.1 mph - N/A   Overcast
12:15 PM 54.9 °F 51.3 °F 88% 30.28 in 7.0 mi North 9.2 mph - N/A   Overcast
12:35 PM 55.0 °F 51.3 °F 87% 30.27 in 7.0 mi North 9.2 mph - N/A   Overcast
12:55 PM 55.2 °F 51.6 °F 88% 30.25 in 7.0 mi North 8.1 mph - N/A   Overcast
1:15 PM 55.6 °F 51.8 °F 87% 30.24 in 7.0 mi North 8.1 mph - N/A   Overcast
1:55 PM 56.1 °F 52.2 °F 87% 30.21 in 5.0 mi North 9.2 mph - N/A   Overcast
2:35 PM 56.3 °F 52.7 °F 88% 30.20 in 5.0 mi North 5.8 mph - N/A   Overcast
3:15 PM 56.1 °F 52.9 °F 89% 30.20 in 2.5 mi NNW 5.8 mph - N/A   Overcast
3:55 PM 56.3 °F 53.4 °F 90% 30.18 in 2.5 mi North 8.1 mph - N/A Rain Light Rain
4:35 PM 55.9 °F 53.6 °F 92% 30.18 in 2.5 mi North 6.9 mph - N/A Rain Light Rain
4:55 PM 55.9 °F 53.6 °F 92% 30.18 in 2.0 mi North 6.9 mph - N/A   Light Drizzle
5:15 PM 56.1 °F 53.8 °F 92% 30.18 in 2.0 mi North 5.8 mph - N/A   Drizzle
5:35 PM 56.3 °F 54.0 °F 92% 30.17 in 3.0 mi North 8.1 mph - N/A   Light Drizzle
5:55 PM 56.3 °F 54.0 °F 92% 30.17 in 4.0 mi North 5.8 mph - N/A   Overcast
6:35 PM 56.3 °F 54.0 °F 92% 30.18 in 4.0 mi NNW 4.6 mph - N/A   Overcast
7:15 PM 56.3 °F 54.1 °F 92% 30.18 in 4.0 mi NW 3.5 mph - N/A   Overcast
7:55 PM 56.8 °F 54.7 °F 92% 30.18 in 4.0 mi NNW 4.6 mph - N/A Rain Rain
8:55 PM 57.2 °F 55.0 °F 92% 30.20 in 3.0 mi Calm Calm - 0.01 in   Heavy Drizzle
9:15 PM 57.4 °F 55.2 °F 92% 30.19 in 3.0 mi Calm Calm - 0.01 in   Drizzle
9:35 PM 57.4 °F 55.4 °F 93% 30.20 in 3.0 mi Calm Calm - 0.01 in Rain Light Rain
9:55 PM 57.6 °F 55.4 °F 92% 30.19 in 2.5 mi WNW 3.5 mph - 0.01 in   Drizzle
10:15 PM 57.6 °F 55.6 °F 93% 30.20 in 3.0 mi West 3.5 mph - N/A   Overcast
11:15 PM 57.7 °F 55.8 °F 93% 30.19 in 2.5 mi Calm Calm - 0.01 in   Drizzle
11:35 PM 57.7 °F 55.8 °F 93% 30.18 in 3.0 mi Calm Calm - 0.01 in   Overcast
11:55 PM 57.7 °F 55.8 °F 93% 30.18 in 4.0 mi Calm Calm - 0.01 in   Overcast